Flag for Thailand Weather past 2 weeks in Phuket, Thailand

Now
90 °F

Scattered clouds.


Feels Like: 91 °F
Forecast: 78 / 88 °F
Wind: 12 mph from East

Location: Phuket Airport

Current Time: Mar 3, 2015 at 12:13:56 PM

Latest Report: Mar 3, 2015 at 11:30 AM


Visibility: N/A

Pressure: 29.89 "Hg

Humidity: 43%

Dew point: 64 °F

Location of PhuketLocation

Historic Weather in Phuket — Graph

°F

Phuket temperature yesterday

Maximum temperature yesterday: 91 °F (at 12:30 PM)
Minimum temperature yesterday: 72 °F (at 6:30 AM)
Average temperature yesterday: 83 °F

Past Weeks' High & Low Weather Summary

 TemperatureHumidityPressure
High93 °F (Mar 1, 3:00 PM)100% (Feb 19, 12:00 PM)29.98 "Hg (Feb 19, 12:00 PM)
Low72 °F (Mar 2, 6:30 AM)34% (Feb 22, 3:30 PM)29.77 "Hg (Feb 17, 4:30 PM)
Average82 °F69%29.86 "Hg
* Reported Feb 16 10:00 AM — Mar 3 10:30 AM, Phuket, Weather by CustomWeather, © 2015

Note: Actual official high and low records may vary slightly from our data, if they occured in-between our weather recording intervals... More about our weather records

Advertising

Phuket weather history for previous 24 hours

 ConditionsComfort  
Time TempWeatherWind HumidityBarometerVisibility
10:30 AM
Tue, Mar 3
88 °FScattered clouds.10 mph49%29.92 "HgN/A
9:30 AM86 °FScattered clouds.10 mph55%29.92 "HgN/A
9:00 AM84 °FScattered clouds.10 mph62%29.92 "HgN/A
8:30 AM82 °FScattered clouds.8 mph62%29.92 "HgN/A
8:00 AM81 °FScattered clouds.7 mph70%29.92 "HgN/A
7:30 AM79 °FPartly sunny.6 mph74%29.92 "HgN/A
7:00 AM75 °FPartly sunny.3 mph83%29.89 "HgN/A
6:30 AM73 °FPassing clouds.2 mph89%29.89 "HgN/A
6:00 AM73 °FPassing clouds.1 mph89%29.89 "HgN/A
5:30 AM75 °FPassing clouds.No wind83%29.86 "HgN/A
5:00 AM75 °FPassing clouds.3 mph89%29.86 "HgN/A
4:30 AM75 °FPassing clouds.No wind89%29.86 "HgN/A
4:00 AM75 °FPassing clouds.2 mph89%29.86 "HgN/A
3:30 AM75 °FPassing clouds.1 mph89%29.86 "HgN/A
3:00 AM77 °FPassing clouds.2 mph83%29.86 "HgN/A
2:30 AM77 °FPassing clouds.1 mph83%29.89 "HgN/A
2:00 AM77 °FPassing clouds.No wind83%29.89 "HgN/A
1:30 AM79 °FPassing clouds.2 mph84%29.89 "HgN/A
1:00 AM79 °FPassing clouds.1 mph84%29.92 "HgN/A
12:30 AM79 °FPassing clouds.2 mph84%29.92 "HgN/A
12:00 AM81 °FPassing clouds.2 mph79%29.92 "HgN/A
11:30 PM
Mon, Mar 2
82 °FPassing clouds.5 mph74%29.92 "HgN/A
11:00 PM82 °FPassing clouds.5 mph74%29.92 "HgN/A
10:30 PM79 °FPassing clouds.No wind84%29.92 "HgN/A
10:00 PM79 °FPassing clouds.1 mph84%29.92 "HgN/A
9:30 PM82 °FPartly cloudy.5 mph74%29.92 "HgN/A
9:00 PM84 °FPassing clouds.6 mph66%29.89 "HgN/A
8:30 PM82 °FPassing clouds.7 mph70%29.89 "HgN/A
8:00 PM84 °FPassing clouds.9 mph66%29.86 "HgN/A
7:30 PM84 °FPassing clouds.7 mph66%29.86 "HgN/A
7:00 PM84 °FPassing clouds.7 mph66%29.83 "HgN/A
6:30 PM84 °FScattered clouds.9 mph66%29.83 "HgN/A
6:00 PM86 °FPassing clouds.14 mph62%29.80 "HgN/A
5:30 PM86 °FPassing clouds.15 mph62%29.80 "HgN/A
5:00 PM88 °FPassing clouds.13 mph55%29.80 "HgN/A
4:30 PM88 °FPassing clouds.13 mph55%29.80 "HgN/A
4:00 PM88 °FPassing clouds.14 mph55%29.83 "HgN/A
3:30 PM88 °FPassing clouds.12 mph52%29.83 "HgN/A
3:00 PM88 °FPassing clouds.12 mph52%29.83 "HgN/A
2:30 PM90 °FPassing clouds.13 mph49%29.86 "HgN/A
2:00 PM90 °FPassing clouds.12 mph52%29.86 "HgN/A
1:30 PM90 °FPassing clouds.9 mph55%29.86 "HgN/A
1:00 PM91 °FPassing clouds.14 mph44%29.86 "HgN/A
12:30 PM91 °FPassing clouds.12 mph44%29.89 "HgN/A
12:00 PM90 °FPassing clouds.12 mph46%29.89 "HgN/A
Weather by CustomWeather, © 2015

See weather overviewHow to use our weather pages